User: anonymous   Login
Location: Ciserano
(45.5833°N, 9.6000°E)
Time: 02:41:27
(UTC+00:00)
Language:

RESURS DK-1 - Orbit

View from above orbital plane
View from above orbital plane
View from above satellite
View from above satellite

Ground track
Ground track

The orbit data is extracted from the following two-line orbital elements,

1 29228U 06021A   21060.51082058  .00000118  00000-0  16110-4 0  9993
2 29228  69.9336 253.5544 0002043  33.7949 326.3342 15.02649068811333
Epoch (UTC): 01 March 2021 12:15:34
Eccentricity: 0.0002043
inclination: 69.9336°
perigee height: 557 km
apogee height: 560 km
right ascension of ascending node: 253.5544°
argument of perigee: 33.7949°
revolutions per day: 15.02649068
mean anomaly at epoch: 326.3342°
orbit number at epoch: 81133

The dashed part of the orbit path shows where the satellite is in the earth's shadow,  

DLR